DW5256 Weather Reports


time (UTC)temp
F
wind
direction
speed
knots
gust
knots
rain 1hr
in
rain 24hr
in
rain mn
in
humidity
%
barometer
mb
20260831082034 70 260 0.0 0.0 0.00 0.00 0.00 84 1010.9
20260831080532 70 260 0.0 6.1 0.00 0.00 0.00 84 1011.1
20260831075029 70 260 0.0 0.0 0.00 0.00 0.00 84 1010.9
20260831073532 70 260 0.0 0.0 0.00 0.00 0.00 85 1011.2
20260831072028 70 260 0.0 0.0 0.00 0.00 0.00 84 1011.1
20260831070527 70 260 0.0 0.0 0.00 0.00 0.00 84 1011.1
20260831065016 71 260 0.0 0.0 0.00 0.00 0.00 85 1011.2
20260831063516 71 260 0.0 0.0 0.00 0.00 0.00 84 1011.0
20260831062034 70 260 0.0 0.0 0.00 0.00 0.00 84 1011.0
20260831060517 70 260 0.0 0.0 0.00 0.00 0.00 84 1010.9
20260831055033 70 260 0.0 0.0 0.00 0.00 0.00 84 1011.0
20260831053535 71 260 0.0 0.0 0.00 0.00 0.00 84 1011.0
20260831052015 71 260 0.0 0.0 0.00 0.00 0.00 83 1010.8
20260831050532 71 260 0.0 0.0 0.00 0.00 0.00 83 1010.7
20260831045015 71 260 0.0 0.0 0.00 0.00 0.00 82 1010.9
20260831043555 71 260 0.0 0.0 0.00 0.00 0.00 82 1010.7
20260831042015 72 260 0.0 0.0 0.00 0.00 0.00 81 1010.6
20260831040521 72 260 0.0 0.0 0.00 0.00 0.00 80 1010.5
20260831035019 72 260 0.0 0.0 0.00 0.00 0.00 80 1010.2
20260831033521 72 260 0.0 0.0 0.00 0.00 0.00 79 1010.2
20260831032020 73 260 0.0 0.0 0.00 0.00 0.00 78 1009.9
20260831030519 73 260 0.0 0.0 0.00 0.00 0.00 77 1009.9
20260831025045 74 260 0.0 0.0 0.00 0.00 0.00 77 1009.8
20260831023524 74 260 0.0 0.0 0.00 0.00 0.00 75 1009.8
20260831022023 75 260 0.0 0.0 0.00 0.00 0.00 75 1009.8
20260831020522 76 260 0.0 0.0 0.00 0.00 0.00 74 1009.7
20260831015023 77 260 0.0 0.0 0.00 0.00 0.00 73 1009.7
20260831013524 78 266 0.0 0.0 0.00 0.00 0.00 72 1009.6
20260831012022 78 259 0.9 6.1 0.00 0.00 0.00 71 1009.6
20260831010525 80 269 0.0 5.2 0.00 0.00 0.00 69 1009.6
20260831005031 80 265 0.9 2.6 0.00 0.00 0.00 69 1009.5
20260831003532 81 257 2.6 7.8 0.00 0.00 0.00 67 1009.7
20260831002026 81 257 0.0 6.1 0.00 0.00 0.00 67 1009.6
20260831000529 82 230 0.9 7.0 0.00 0.00 0.00 67 1009.5
20260830235044 82 214 0.0 6.1 0.00 0.00 0.00 66 1009.6
20260830233527 82 215 0.9 8.7 0.00 0.00 0.00 65 1009.7
20260830232021 83 254 0.9 8.7 0.00 0.00 0.00 62 1009.7
20260830230527 83 195 1.7 9.6 0.00 0.00 0.00 58 1009.8
20260830225015 83 235 0.9 7.0 0.00 0.00 0.00 55 1009.7
20260830223521 84 212 0.0 9.6 0.00 0.00 0.00 54 1009.8
20260830222019 83 230 0.9 8.7 0.00 0.00 0.00 53 1009.9
20260830220522 84 240 2.6 9.6 0.00 0.00 0.00 55 1010.1
20260830215024 84 262 3.5 7.8 0.00 0.00 0.00 51 1010.2
20260830213533 83 248 4.3 8.7 0.00 0.00 0.00 53 1010.3
20260830212039 83 261 3.5 9.6 0.00 0.00 0.00 52 1010.4
20260830210518 83 271 2.6 9.6 0.00 0.00 0.00 49 1010.5
20260830205016 84 232 0.9 11.3 0.00 0.00 0.00 52 1010.6
20260830203517 85 244 1.7 7.0 0.00 0.00 0.00 49 1010.7
20260830202015 85 234 1.7 8.7 0.00 0.00 0.00 50 1010.7
20260830200521 84 260 2.6 8.7 0.00 0.00 0.00 46 1010.8
20260830195021 85 254 0.0 8.7 0.00 0.00 0.00 43 1010.8
20260830193548 84 235 0.9 8.7 0.00 0.00 0.00 49 1010.9
20260830192042 84 234 0.9 11.3 0.00 0.00 0.00 54 1011.1
20260830190539 84 265 0.0 8.7 0.00 0.00 0.00 58 1010.9
20260830185034 83 243 5.2 8.7 0.00 0.00 0.00 64 1011.0
20260830183529 82 257 0.9 9.6 0.00 0.00 0.00 65 1011.0
20260830182043 82 229 0.9 7.8 0.00 0.00 0.00 64 1011.2
20260830180537 83 232 0.0 6.1 0.00 0.00 0.00 61 1011.2
20260830175021 82 254 0.0 0.0 0.00 0.00 0.00 65 1011.2
20260830173531 83 221 0.0 0.0 0.00 0.00 0.00 66 1011.1
20260830172038 82 225 0.0 0.0 0.00 0.00 0.00 66 1010.9
20260830170534 80 241 0.0 0.0 0.00 0.00 0.00 68 1010.8
20260830165023 79 241 0.0 0.0 0.00 0.00 0.00 71 1010.6
20260830163554 77 240 0.0 0.0 0.00 0.00 0.00 74 1010.6
20260830162017 75 240 0.0 0.0 0.00 0.00 0.00 78 1010.7
20260830160542 74 242 0.0 0.0 0.00 0.00 0.00 80 1010.7
20260830155031 74 232 0.0 0.0 0.00 0.00 0.00 82 1010.8
20260830153525 73 232 0.0 0.9 0.00 0.00 0.00 85 1010.9
20260830152040 71 232 0.0 0.0 0.00 0.00 0.00 86 1010.8
20260830150530 71 233 0.0 0.0 0.00 0.00 0.00 86 1010.9
20260830145018 70 233 0.0 0.0 0.00 0.00 0.00 87 1010.7
20260830143530 70 234 0.0 0.0 0.00 0.00 0.00 87 1010.6
20260830142023 70 233 0.0 0.0 0.00 0.00 0.00 87 1010.8
20260830140530 70 234 0.0 0.0 0.00 0.00 0.00 87 1010.6
20260830135020 70 233 0.0 0.0 0.00 0.00 0.00 87 1010.5
20260830133518 70 233 0.0 0.0 0.00 0.00 0.00 86 1010.3
20260830132014 70 234 0.0 0.0 0.00 0.00 0.00 87 1010.1
20260830130515 70 233 0.0 0.0 0.00 0.00 0.00 87 1010.1
20260830125052 70 234 0.0 0.0 0.00 0.00 0.00 87 1010.1
20260830123531 70 233 0.0 0.0 0.00 0.00 0.00 86 1010.0
20260830122031 70 233 0.0 0.0 0.00 0.00 0.00 86 1009.9
20260830120530 71 238 0.0 0.0 0.00 0.00 0.00 86 1010.0
20260830115027 71 239 0.0 0.0 0.00 0.00 0.00 87 1010.1
20260830113528 71 240 0.0 0.0 0.00 0.00 0.00 86 1010.0
20260830112023 71 257 0.0 0.0 0.00 0.00 0.00 86 1009.9
20260830110521 71 258 0.0 0.0 0.00 0.00 0.00 86 1009.9
20260830105020 71 258 0.0 0.0 0.00 0.00 0.00 86 1009.8
20260830103520 71 258 0.0 0.0 0.00 0.00 0.00 86 1009.9
20260830102044 71 257 0.0 0.0 0.00 0.00 0.00 86 1009.8
20260830100547 71 270 0.0 0.0 0.00 0.00 0.00 86 1009.8
20260830095023 72 273 0.0 0.0 0.00 0.00 0.00 86 1009.8
20260830093521 72 273 0.0 0.0 0.00 0.00 0.00 86 1009.8
20260830092020 72 273 0.0 0.0 0.00 0.00 0.00 86 1009.9
20260830090519 72 273 0.0 0.0 0.00 0.00 0.00 86 1009.9
20260830085016 72 274 0.0 0.0 0.00 0.00 0.00 86 1010.1
20260830083518 72 274 0.0 0.0 0.00 0.00 0.00 86 1010.0